Location: Newark
(43.0000°N, 1.6781°W)
Time: 22:04:30
(UTC+00:00)

AO-85 - Pass Details

Date: 27 November 2022
Orbit: 516 x 753 km, 64.8° (Epoch: 04 January)

Event Time Altitude Azimuth Distance (km) Brightness Sun altitude
Rises 18:09:10 0° 247° (WSW) 3,024 ? -16.9°
Reaches altitude 10° 18:11:57 10° 261° (W) 2,068 ? -17.4°
Maximum altitude 18:15:43 24° 315° (NW) 1,319 ? -18.1°
Enters shadow 18:19:17 10° 10° (N) 1,946 ? -18.7°
